EW4725 Weather Reports


time (UTC)temp
F
wind
direction
speed
knots
gust
knots
rain 1hr
in
rain 24hr
in
rain mn
in
humidity
%
barometer
mb
20260905202916 89 148 1.7 3.5 0.00 0.00 0.00 30 1012.7
20260905202416 88 148 1.7 3.5 0.00 0.00 0.00 31 1012.7
20260905201916 88 0.0 1.7 0.00 0.00 0.00 33 1012.7
20260905201416 88 193 0.9 1.7 0.00 0.00 0.00 34 1012.8
20260905200916 88 238 0.9 1.7 0.00 0.00 0.00 34 1012.9
20260905200416 88 148 0.9 1.7 0.00 0.00 0.00 36 1012.9
20260905195936 88 215 0.9 2.6 0.00 0.00 0.00 37 1012.9
20260905195416 87 148 0.9 3.5 0.00 0.00 0.00 39 1013.0
20260905194916 87 170 1.7 3.5 0.00 0.00 0.00 39 1013.1
20260905194416 87 0.0 1.7 0.00 0.00 0.00 40 1013.3
20260905193916 88 148 2.6 5.2 0.00 0.00 0.00 39 1013.3
20260905193416 87 283 0.9 2.6 0.00 0.00 0.00 37 1013.2
20260905192916 87 283 3.5 7.8 0.00 0.00 0.00 36 1013.2
20260905192416 87 283 1.7 4.3 0.00 0.00 0.00 37 1013.4
20260905191936 87 260 1.7 3.5 0.00 0.00 0.00 36 1013.5
20260905191436 87 0.0 1.7 0.00 0.00 0.00 37 1013.5
20260905190916 86 0.0 0.9 0.00 0.00 0.00 37 1013.6
20260905190416 86 0.0 0.0 0.00 0.00 0.00 37 1013.6
20260905185916 86 125 0.9 2.6 0.00 0.00 0.00 35 1013.7
20260905185416 85 125 1.7 3.5 0.00 0.00 0.00 34 1013.7
20260905184916 85 0.0 1.7 0.00 0.00 0.00 34 1013.7
20260905184436 85 148 3.5 4.3 0.00 0.00 0.00 33 1013.9
20260905183916 85 103 1.7 2.6 0.00 0.00 0.00 31 1013.9
20260905183416 84 0.0 0.0 0.00 0.00 0.00 38 1014.0
20260905182936 83 0.0 1.7 0.00 0.00 0.00 38 1014.0
20260905182416 84 58 2.6 3.5 0.00 0.00 0.00 40 1014.1
20260905181916 83 125 0.9 1.7 0.00 0.00 0.00 42 1014.1
20260905181416 83 148 0.9 2.6 0.00 0.00 0.00 44 1014.1
20260905180936 82 0.0 0.0 0.00 0.00 0.00 47 1014.1
20260905180416 81 125 0.9 3.5 0.00 0.00 0.00 48 1014.0
20260905175936 81 58 2.6 3.5 0.00 0.00 0.00 48 1014.1
20260905175416 80 0.0 1.7 0.00 0.00 0.00 51 1014.1
20260905174916 80 125 3.5 5.2 0.00 0.00 0.00 52 1014.2
20260905174415 80 125 1.7 3.5 0.00 0.00 0.00 56 1014.1
20260905173936 80 103 1.7 1.7 0.00 0.00 0.00 57 1014.1
20260905173416 79 0.0 0.0 0.00 0.00 0.00 60 1014.1
20260905172916 79 148 2.6 4.3 0.00 0.00 0.00 61 1014.0
20260905171916 78 283 1.7 2.6 0.00 0.00 0.00 62 1014.0
20260905171416 78 0.0 0.9 0.00 0.00 0.00 63 1014.0
20260905170916 78 125 2.6 3.5 0.00 0.00 0.00 63 1014.1
20260905170416 77 0.0 0.9 0.00 0.00 0.00 65 1014.0
20260905165916 77 125 0.9 1.7 0.00 0.00 0.00 66 1014.1
20260905165416 76 0.0 0.9 0.00 0.00 0.00 68 1014.1
20260905164916 76 0.0 0.9 0.00 0.00 0.00 69 1014.1
20260905164416 76 125 1.7 4.3 0.00 0.00 0.00 71 1014.1
20260905163936 75 125 0.9 1.7 0.00 0.00 0.00 71 1014.1
20260905163415 75 0.0 0.0 0.00 0.00 0.00 73 1014.0
20260905162915 75 283 0.9 1.7 0.00 0.00 0.00 71 1014.0
20260905162415 74 0.0 0.0 0.00 0.00 0.00 75 1014.0
20260905161916 73 0.0 0.0 0.00 0.00 0.00 76 1013.9
20260905161416 73 0.0 0.9 0.00 0.00 0.00 75 1013.9
20260905160916 73 238 1.7 1.7 0.00 0.00 0.00 76 1013.9
20260905160415 73 0.0 0.9 0.00 0.00 0.00 78 1013.9
20260905155916 72 0.0 0.0 0.00 0.00 0.00 80 1014.0
20260905155416 72 305 1.7 2.6 0.00 0.00 0.00 79 1013.9
20260905154916 72 0.0 1.7 0.00 0.00 0.00 82 1013.8
20260905154416 71 0.0 0.0 0.00 0.00 0.00 82 1013.8
20260905153935 71 305 1.7 2.6 0.00 0.00 0.00 82 1013.8
20260905153416 71 0.0 0.0 0.00 0.00 0.00 83 1013.8
20260905152915 70 328 0.9 0.9 0.00 0.00 0.00 81 1013.8
20260905152415 71 13 0.9 1.7 0.00 0.00 0.00 82 1013.8
20260905151916 70 125 0.9 1.7 0.00 0.00 0.00 84 1013.7
20260905151415 70 305 1.7 2.6 0.00 0.00 0.00 83 1013.6
20260905150935 69 0.0 0.0 0.00 0.00 0.00 86 1013.6
20260905150436 68 0.0 0.0 0.00 0.00 0.00 86 1013.6
20260905145916 68 0.0 0.0 0.00 0.00 0.00 87 1013.6
20260905145415 67 350 0.9 1.7 0.00 0.00 0.00 87 1013.6
20260905144916 67 0.0 0.9 0.00 0.00 0.00 88 1013.5
20260905144415 66 0.0 0.0 0.00 0.00 0.00 89 1013.5
20260905143915 65 350 0.9 1.7 0.00 0.00 0.00 89 1013.4
20260905143415 65 0.0 0.0 0.00 0.00 0.00 90 1013.4
20260905142915 64 0.0 0.0 0.00 0.00 0.00 90 1013.4
20260905142435 64 0.0 0.0 0.00 0.00 0.00 90 1013.4
20260905141916 64 0.0 0.9 0.00 0.00 0.00 90 1013.4
20260905141415 64 0.0 0.0 0.00 0.00 0.00 90 1013.2
20260905140915 64 0.0 0.0 0.00 0.00 0.00 91 1013.2
20260905140416 64 0.0 0.0 0.00 0.00 0.00 91 1013.1
20260905135915 63 0.0 0.9 0.00 0.00 0.00 91 1013.1
20260905135415 63 0.0 0.0 0.00 0.00 0.00 91 1013.0
20260905134936 63 0.0 0.0 0.00 0.00 0.00 91 1013.0
20260905134455 63 0.0 0.9 0.00 0.00 0.00 92 1012.9
20260905133916 63 0.0 0.9 0.00 0.00 0.00 92 1012.9
20260905133415 62 0.0 0.0 0.00 0.00 0.00 91 1012.9
20260905132916 62 0.0 0.0 0.00 0.00 0.00 90 1012.8
20260905132415 63 0.0 0.0 0.00 0.00 0.00 90 1012.8
20260905131956 63 0.0 0.0 0.00 0.00 0.00 90 1012.8
20260905131415 63 0.0 0.0 0.00 0.00 0.00 91 1012.7
20260905130915 63 0.0 0.0 0.00 0.00 0.00 90 1012.6
20260905130415 64 0.0 0.0 0.00 0.00 0.00 90 1012.6
20260905125936 64 0.0 0.9 0.00 0.00 0.00 90 1012.6
20260905125415 64 0.0 0.0 0.00 0.00 0.00 90 1012.6
20260905124915 64 0.0 0.0 0.00 0.00 0.00 91 1012.6
20260905124415 64 0.0 0.0 0.00 0.00 0.00 91 1012.6
20260905123915 64 0.0 0.0 0.00 0.00 0.00 91 1012.6
20260905123415 64 103 0.9 1.7 0.00 0.00 0.00 91 1012.6
20260905122915 64 0.0 0.0 0.00 0.00 0.00 91 1012.5
20260905122415 64 0.0 0.0 0.00 0.00 0.00 91 1012.6
20260905121915 64 0.0 0.0 0.00 0.00 0.00 90 1012.7
20260905121415 64 0.0 0.0 0.00 0.00 0.00 90 1012.7
20260905120915 64 0.0 0.0 0.00 0.00 0.00 90 1012.7
20260905120415 65 0.0 0.0 0.00 0.00 0.00 90 1012.6
20260905115915 65 0.0 0.0 0.00 0.00 0.00 90 1012.7
20260905115415 65 0.0 0.0 0.00 0.00 0.00 91 1012.6
20260905114915 65 0.0 0.0 0.00 0.00 0.00 91 1012.6
20260905114417 65 0.0 0.0 0.00 0.00 0.00 90 1012.6
20260905113917 65 0.0 0.0 0.00 0.00 0.00 91 1012.6
20260905113435 65 0.0 0.0 0.00 0.00 0.00 91 1012.7
20260905112917 65 0.0 0.0 0.00 0.00 0.00 91 1012.7
20260905112417 65 0.0 0.9 0.00 0.00 0.00 91 1012.8
20260905111917 65 0.0 0.0 0.00 0.00 0.00 91 1012.8
20260905111417 65 0.0 0.0 0.00 0.00 0.00 90 1012.8
20260905110917 65 0.0 0.0 0.00 0.00 0.00 90 1012.8
20260905110417 66 0.0 0.0 0.00 0.00 0.00 91 1012.8
20260905105917 66 0.0 0.9 0.00 0.00 0.00 91 1012.9
20260905105417 66 103 0.9 1.7 0.00 0.00 0.00 91 1012.8
20260905104917 66 0.0 0.9 0.00 0.00 0.00 90 1012.8
20260905104417 66 0.0 0.0 0.00 0.00 0.00 90 1012.8
20260905103917 66 0.0 0.9 0.00 0.00 0.00 90 1012.7
20260905103417 66 103 0.9 1.7 0.00 0.00 0.00 90 1012.8
20260905102917 66 0.0 0.9 0.00 0.00 0.00 90 1012.8
20260905102417 66 125 1.7 1.7 0.00 0.00 0.00 90 1012.9
20260905101917 66 0.0 0.0 0.00 0.00 0.00 90 1012.8
20260905101417 66 0.0 0.9 0.00 0.00 0.00 90 1012.9
20260905100917 66 103 0.9 0.9 0.00 0.00 0.00 91 1012.9
20260905100417 66 0.0 0.9 0.00 0.00 0.00 91 1012.9
20260905095917 66 0.0 0.9 0.00 0.00 0.00 91 1012.9
20260905095417 66 0.0 0.0 0.00 0.00 0.00 91 1012.9
20260905094917 66 0.0 0.9 0.00 0.00 0.00 91 1013.0
20260905094417 66 0.0 0.0 0.00 0.00 0.00 91 1012.9
20260905093937 66 0.0 0.0 0.00 0.00 0.00 90 1012.9
20260905093417 67 0.0 0.0 0.00 0.00 0.00 90 1012.9
20260905092917 67 0.0 0.0 0.00 0.00 0.00 90 1012.8
20260905092415 67 0.0 0.0 0.00 0.00 0.00 90 1012.8
20260905091917 67 0.0 0.0 0.00 0.00 0.00 90 1012.8
20260905091417 67 0.0 0.9 0.00 0.00 0.00 90 1012.9
20260905090917 67 125 0.9 1.7 0.00 0.00 0.00 90 1012.9
20260905090417 67 125 0.9 1.7 0.00 0.00 0.00 90 1012.9
20260905085917 67 0.0 0.0 0.00 0.00 0.00 90 1012.9
20260905085437 67 0.0 0.0 0.00 0.00 0.00 90 1012.9
20260905084917 67 0.0 0.0 0.00 0.00 0.00 90 1012.9
20260905084417 67 0.0 0.0 0.00 0.00 0.00 90 1012.9
20260905083917 67 0.0 0.9 0.00 0.00 0.00 90 1013.0
20260905083417 67 125 0.9 1.7 0.00 0.00 0.00 90 1013.0
20260905082957 67 0.0 0.0 0.00 0.00 0.00 89 1013.0
20260905082417 67 0.0 0.0 0.00 0.00 0.00 89 1013.1
20260905081917 67 103 0.9 0.9 0.00 0.00 0.00 90 1013.1
20260905081517 67 125 0.9 2.6 0.00 0.00 0.00 90 1013.2
20260905080937 67 0.0 0.0 0.00 0.00 0.00 90 1013.2
20260905080417 67 0.0 0.0 0.00 0.00 0.00 90 1013.3
20260905075917 67 0.0 0.9 0.00 0.00 0.00 90 1013.3
20260905075417 67 0.0 0.0 0.00 0.00 0.00 90 1013.2
20260905074917 67 0.0 0.9 0.00 0.00 0.00 90 1013.3
20260905074417 67 0.0 0.0 0.00 0.00 0.00 90 1013.3
20260905073917 67 0.0 0.0 0.00 0.00 0.00 91 1013.2
20260905073417 67 125 0.9 0.9 0.00 0.00 0.00 91 1013.2
20260905072917 66 0.0 0.0 0.00 0.00 0.00 91 1013.2
20260905072417 66 0.0 0.0 0.00 0.00 0.00 91 1013.1
20260905071917 66 0.0 0.0 0.00 0.00 0.00 90 1013.0
20260905071416 67 0.0 0.0 0.00 0.00 0.00 90 1013.1
20260905070917 67 0.0 0.0 0.00 0.00 0.00 90 1013.1
20260905070437 67 0.0 0.0 0.00 0.00 0.00 90 1013.1
20260905065915 66 0.0 0.0 0.00 0.00 0.00 90 1013.1
20260905065437 66 0.0 0.0 0.00 0.00 0.00 89 1013.0
20260905064917 67 0.0 0.0 0.00 0.00 0.00 89 1013.0
20260905064437 67 0.0 0.0 0.00 0.00 0.00 89 1013.0
20260905063917 67 0.0 0.0 0.00 0.00 0.00 89 1013.1
20260905063437 67 0.0 0.0 0.00 0.00 0.00 89 1013.1
20260905062917 67 0.0 0.0 0.00 0.00 0.00 89 1013.0
20260905062415 67 0.0 0.0 0.00 0.00 0.00 88 1013.0
20260905061917 68 0.0 0.0 0.00 0.00 0.00 88 1013.1
20260905061417 68 0.0 0.0 0.00 0.00 0.00 88 1013.0
20260905060917 68 0.0 0.0 0.00 0.00 0.00 87 1013.0
20260905060415 68 0.0 0.0 0.00 0.00 0.00 87 1012.9
20260905055917 68 0.0 0.0 0.00 0.00 0.00 87 1012.9
20260905055417 68 0.0 0.0 0.00 0.00 0.00 87 1013.0
20260905054917 69 260 0.9 1.7 0.00 0.00 0.00 87 1012.9
20260905054417 69 0.0 0.0 0.00 0.00 0.00 87 1012.9
20260905053917 69 305 3.5 4.3 0.00 0.00 0.00 87 1012.8
20260905053417 69 0.0 0.0 0.00 0.00 0.00 87 1012.8
20260905052917 69 283 0.9 2.6 0.00 0.00 0.00 87 1012.8
20260905052417 69 283 0.9 3.5 0.00 0.00 0.00 87 1012.8
20260905051917 69 0.0 1.7 0.00 0.00 0.00 87 1012.8
20260905051417 69 283 0.9 1.7 0.00 0.00 0.00 87 1012.9
20260905050937 69 0.0 0.9 0.00 0.00 0.00 86 1012.9
20260905050417 69 283 0.9 2.6 0.00 0.00 0.00 87 1013.0
20260905045917 69 260 2.6 4.3 0.00 0.00 0.00 86 1012.9
20260905045437 69 305 1.7 2.6 0.00 0.00 0.00 86 1012.9
20260905044937 69 260 0.9 1.7 0.00 0.00 0.00 86 1012.8
20260905044417 69 283 1.7 2.6 0.00 0.00 0.00 85 1012.8
20260905043917 69 305 2.6 3.5 0.00 0.00 0.00 85 1012.7
20260905043417 69 283 1.7 2.6 0.00 0.00 0.00 85 1012.7
20260905042917 69 0.0 0.9 0.00 0.00 0.00 84 1012.6
20260905042417 69 260 0.9 1.7 0.00 0.00 0.00 84 1012.5
20260905041917 69 0.0 1.7 0.00 0.00 0.00 84 1012.6
20260905041437 69 0.0 0.9 0.00 0.00 0.00 84 1012.5
20260905040917 69 260 2.6 4.3 0.00 0.00 0.00 84 1012.4
20260905040417 70 260 0.9 1.7 0.00 0.00 0.00 84 1012.3
20260905035937 70 260 1.7 2.6 0.00 0.00 0.00 84 1012.3
20260905035517 70 283 2.6 3.5 0.00 0.00 0.00 83 1012.3
20260905034917 70 283 1.7 3.5 0.00 0.00 0.00 83 1012.1
20260905034417 70 260 1.7 2.6 0.00 0.00 0.00 83 1012.1
20260905033917 70 283 3.5 5.2 0.00 0.00 0.00 83 1012.1
20260905033417 70 260 3.5 5.2 0.00 0.00 0.00 83 1012.0
20260905033017 70 283 3.5 7.0 0.00 0.00 0.00 82 1012.0
20260905032417 70 283 1.7 4.3 0.00 0.00 0.00 82 1012.0
20260905031917 70 283 3.5 6.1 0.00 0.00 0.00 82 1011.9
20260905031437 70 283 3.5 4.3 0.00 0.00 0.00 82 1011.9
20260905030917 70 283 3.5 5.2 0.00 0.00 0.00 81 1011.9
20260905030417 70 260 1.7 1.7 0.00 0.00 0.00 81 1011.8
20260905025917 71 260 4.3 7.0 0.00 0.00 0.00 80 1011.7
20260905025416 71 283 3.5 5.2 0.00 0.00 0.00 80 1011.6
20260905024917 71 283 2.6 4.3 0.00 0.00 0.00 80 1011.6
20260905024416 71 283 3.5 4.3 0.00 0.00 0.00 79 1011.6
20260905023917 71 260 4.3 6.1 0.00 0.00 0.00 79 1011.6
20260905023417 71 283 3.5 6.1 0.00 0.00 0.00 78 1011.7
20260905022917 72 283 4.3 6.1 0.00 0.00 0.00 78 1011.6
20260905022417 72 283 3.5 5.2 0.00 0.00 0.00 77 1011.7
20260905021917 72 305 0.9 1.7 0.00 0.00 0.00 76 1011.7
20260905021417 72 260 2.6 4.3 0.00 0.00 0.00 76 1011.7
20260905020917 73 283 2.6 3.5 0.00 0.00 0.00 75 1011.6
20260905020417 73 260 1.7 3.5 0.00 0.00 0.00 74 1011.6
20260905015917 74 283 3.5 6.1 0.00 0.00 0.00 73 1011.6
20260905015417 74 260 4.3 6.1 0.00 0.00 0.00 72 1011.7
20260905014916 74 260 3.5 5.2 0.00 0.00 0.00 72 1011.7
20260905014417 75 305 1.7 3.5 0.00 0.00 0.00 71 1011.6
20260905013916 75 328 3.5 7.0 0.00 0.00 0.00 70 1011.7
20260905013416 75 305 3.5 5.2 0.00 0.00 0.00 70 1011.7
20260905012937 75 305 3.5 5.2 0.00 0.00 0.00 70 1011.8
20260905012417 76 283 4.3 7.0 0.00 0.00 0.00 69 1011.7
20260905011937 76 305 3.5 5.2 0.00 0.00 0.00 68 1011.8
20260905011417 76 260 3.5 6.1 0.00 0.00 0.00 68 1011.7
20260905010917 77 260 4.3 7.8 0.00 0.00 0.00 68 1011.8
20260905010416 77 260 4.3 7.8 0.00 0.00 0.00 67 1011.8
20260905005917 77 283 3.5 5.2 0.00 0.00 0.00 66 1011.8
20260905005416 78 283 4.3 8.7 0.00 0.00 0.00 64 1011.9
20260905004937 79 283 2.6 5.2 0.00 0.00 0.00 61 1011.8
20260905004437 79 260 1.7 3.5 0.00 0.00 0.00 58 1011.8
20260905003917 78 148 0.9 2.6 0.00 0.00 0.00 57 1011.8
20260905003416 79 170 1.7 4.3 0.00 0.00 0.00 56 1011.9
20260905002916 79 170 0.9 2.6 0.00 0.00 0.00 56 1011.9
20260905002416 79 148 1.7 3.5 0.00 0.00 0.00 55 1011.9
20260905001937 78 283 2.6 5.2 0.00 0.00 0.00 55 1011.8
20260905001437 78 283 3.5 6.1 0.00 0.00 0.00 54 1011.8
20260905000916 77 238 2.6 4.3 0.00 0.00 0.00 55 1011.8
20260905000417 77 193 3.5 5.2 0.00 0.00 0.00 55 1011.9
20260904235937 78 170 2.6 5.2 0.00 0.00 0.00 58 1011.9
20260904235417 78 148 3.5 5.2 0.00 0.00 0.00 57 1012.0
20260904234916 78 215 5.2 7.8 0.00 0.00 0.00 55 1012.1
20260904234436 78 215 2.6 4.3 0.00 0.00 0.00 55 1012.0
20260904233916 79 193 4.3 7.0 0.00 0.00 0.00 54 1012.0
20260904233416 79 148 2.6 5.2 0.00 0.00 0.00 54 1012.0
20260904232937 79 238 3.5 6.1 0.00 0.00 0.00 55 1011.9
20260904232416 80 125 0.9 0.9 0.00 0.00 0.00 54 1011.9
20260904231917 80 148 2.6 5.2 0.00 0.00 0.00 54 1012.0
20260904231416 79 215 2.6 5.2 0.00 0.00 0.00 54 1011.9
20260904230936 79 170 1.7 3.5 0.00 0.00 0.00 54 1012.0
20260904230416 80 148 4.3 6.1 0.00 0.00 0.00 53 1012.0
20260904225916 80 215 1.7 3.5 0.00 0.00 0.00 53 1012.0
20260904225417 80 215 3.5 5.2 0.00 0.00 0.00 53 1012.1
20260904224917 80 215 2.6 4.3 0.00 0.00 0.00 54 1012.1
20260904224416 80 148 1.7 3.5 0.00 0.00 0.00 54 1012.2
20260904223917 80 148 4.3 5.2 0.00 0.00 0.00 53 1012.2
20260904223416 80 148 0.9 3.5 0.00 0.00 0.00 54 1012.2
20260904222916 80 170 4.3 5.2 0.00 0.00 0.00 54 1012.1
20260904222416 79 215 1.7 3.5 0.00 0.00 0.00 55 1012.2
20260904221916 80 283 4.3 7.0 0.00 0.00 0.00 55 1012.2
20260904221436 80 215 4.3 6.1 0.00 0.00 0.00 55 1012.2
20260904220916 80 193 2.6 6.1 0.00 0.00 0.00 57 1012.2
20260904220416 80 238 2.6 4.3 0.00 0.00 0.00 58 1012.3
20260904215936 80 170 3.5 4.3 0.00 0.00 0.00 58 1012.2
20260904215416 80 148 1.7 2.6 0.00 0.00 0.00 57 1012.2
20260904214916 80 125 3.5 7.0 0.00 0.00 0.00 57 1012.3
20260904214416 79 148 2.6 3.5 0.00 0.00 0.00 59 1012.3
20260904213916 79 238 3.5 5.2 0.00 0.00 0.00 59 1012.4
20260904213416 80 125 3.5 6.1 0.00 0.00 0.00 59 1012.4
20260904212916 80 170 2.6 4.3 0.00 0.00 0.00 58 1012.4
20260904212416 80 170 3.5 5.2 0.00 0.00 0.00 58 1012.4
20260904211957 80 170 4.3 7.0 0.00 0.00 0.00 59 1012.4
20260904211416 80 238 4.3 7.8 0.00 0.00 0.00 59 1012.4
20260904210916 79 283 2.6 4.3 0.00 0.00 0.00 59 1012.3
20260904210416 79 260 3.5 5.2 0.00 0.00 0.00 59 1012.4
20260904205916 80 215 4.3 7.0 0.00 0.00 0.00 58 1012.5
20260904205416 80 260 2.6 3.5 0.00 0.00 0.00 60 1012.4
20260904204916 79 170 1.7 3.5 0.00 0.00 0.00 60 1012.5
20260904204416 80 238 4.3 8.7 0.00 0.00 0.00 59 1012.6
20260904203916 80 238 3.5 7.0 0.00 0.00 0.00 59 1012.6
20260904203416 80 148 3.5 6.1 0.00 0.00 0.00 59 1012.6